Hauptseite
METAR-TAF:

METAR-TAF

Flughäfen :

RAF

Holbeach, England

Breite: 52-52N, Länge: 000-09E, Höhe: 3 m

Beobachtung

Neuester Wetterbericht von vor 51 Minuten, um 10:50 UTC
Wind 19 kt aus Ost
Temperatur 7°C
Luftfeuchtigkeit 93%
Luftdruck 996 hPa
Sichtweite 10 km oder mehr
Leicht bewölkt in der Höhe von 1500 ft
Geschlossene Wolkendecke in der Höhe von 3000 ft
Regen

METAR: EGYH 141050Z 09019KT 9999 RA FEW015 OVC030 07/06 Q0996 RMK BLU

Zeit: 11:41 (11:41 UTC)


TAF: fehlend

Wetterbeobachtungen und Prognosen von mehr als 4000 Flughäfen (METAR und TAF Bericht).

Die verfügbaren Stationen werden durch gelbe und rote Markierungen auf der Karte dargestellt.

Führen Sie die Maus auf sie, um den Namen der Station zu sehen.

Darauf klicken, um die Beobachtung von Wetterbeobachtungen und Prognosen zu sehen.

Um die Karte zu ändern : klicken Sie auf den grünen Tasten mit einem schwarzen Kreuz Zum Vergrößern, auf den grünen Button mit einem Gedankenstrich zu verkleinern, oder auf die grünen Pfeile für benachbarte Karten.


METAR-TAF: